Location: Degersen
(52.2871°N, 9.5716°E)
Time: 00:31:15
(UTC+00:00)

Cosmos 1867 - Pass Details

Date: 20 January 2026
Orbit: 777 x 797 km, 65.0° (Epoch: 17 February)

Event Time Altitude Azimuth Distance (km) Brightness Sun altitude
Exits shadow 06:08:18 10° 318° (NW) 2,405 5.5 -10.5°
Reaches altitude 10° 06:08:22 10° 318° (NW) 2,378 5.5 -10.5°
Maximum altitude 06:13:51 79° 46° (NE) 817 3.7 -9.7°
Drops below altitude 10° 06:19:19 10° 134° (SE) 2,363 7.3 -9.0°
Sets 06:21:44 0° 135° (SE) 3,287 8.2 -8.6°
